Location: �clusier
(49.9361°N, 2.7869°E)
Time: 00:46:52
(UTC+00:00)

Cosmos 1331 Rocket - Pass Details

Date: 30 October 2021
Orbit: 749 x 778 km, 74.0° (Epoch: 28 November)

Event Time Altitude Azimuth Distance (km) Brightness Sun altitude
Rises 05:52:04 0° 334° (NNW) 3,240 6.9 -7.5°
Reaches altitude 10° 05:54:27 10° 333° (NNW) 2,314 6.1 -7.1°
Maximum altitude 05:59:41 74° 249° (WSW) 806 4.0 -6.3°
Drops below altitude 10° 06:04:56 10° 166° (SSE) 2,316 6.9 -5.5°
Sets 06:07:18 0° 164° (SSE) 3,242 7.7 -5.1°
